This demonstration page uses our WeatherBlox Daily Observations layout. Learn more.

Left ArrowRight Arrow

41.12389, -100.76542

Hourly Observations for March 29, 2019

Temp ( °F °C ) Dew Point ( °F °C ) Humidity (%) Winds ( mph kmh ) Pressure ( in mb ) Visibility ( mi km ) Precip ( " mm )
12:53 am 00:53 Cloudy 42 5.6 35 1.7 76 76 E 12 19 30.19 1022 10 16 0.00 0.00
1:53 am 01:53 Cloudy 41 5 34 1.1 76 76 E 14 22 30.16 1021 10 16 0.00 0.00
2:24 am 02:24 Cloudy 41 5 34 1.1 76 76 E 13 20 30.19 1022 10 16 0.00 0.00
2:53 am 02:53 Cloudy 41 5 34 1.1 76 76 E 12 19 30.16 1021 10 16 0.00 0.00
3:53 am 03:53 Cloudy 40 4.4 33 0.6 77 77 E 15 24 30.15 1021 10 16 0.00 0.00
4:29 am 04:29 Cloudy 39 3.9 33 0.6 79 79 E 15 24 30.17 1022 10 16 0.00 0.00
4:53 am 04:53 Cloudy 39 3.9 33 0.6 79 79 E 15 24 30.10 1019 10 16 0.00 0.00
5:53 am 05:53 Cloudy 38 3.3 32 0 79 79 ENE 13 20 30.09 1019 10 16 0.00 0.00
6:18 am 06:18 Cloudy with Light Rain 37 2.8 32 0 82 82 E 15 24 30.13 1020 7 11 0.01 0.25
6:53 am 06:53 Cloudy with Light Rain 36 2.2 33 0.6 89 89 ESE 10 17 30.09 1019 8 13 0.04 1.02
7:07 am 07:07 Cloudy with Light Rain 36 2.2 33 0.6 89 89 ESE 6 9 30.16 1021 7 11 0.01 0.25
7:45 am 07:45 Cloudy with Rain 34 1.1 33 0.6 97 97 ESE 5 7 30.17 1022 4 6 0.11 2.79
7:53 am 07:53 Cloudy with Rain 34 1.1 33 0.6 97 97 ESE 7 11 30.11 1020 5 8 0.14 3.56
8:09 am 08:09 Cloudy with Light Snow 34 1.1 32 0 92 92 ESE 6 9 30.19 1022 4 6 0.06 1.52
8:24 am 08:24 Cloudy with Light Snow 34 1.1 32 0 92 92 Calm 30.21 1023 2 3 0.10 2.54
8:29 am 08:29 Cloudy with Light Snow 34 1.1 32 0 92 92 NE 5 7 30.21 1023 1 2 0.11 2.79
8:35 am 08:35 Cloudy with Snow 33 0.6 31 -0.6 92 92 ENE 6 9 30.22 1023 1 1 0.13 3.30
8:53 am 08:53 Mostly Cloudy with Heavy Snow 33 0.6 32 0 96 96 ENE 8 13 30.15 1021 5 8 0.21 5.33
9:00 am 09:00 Mostly Cloudy with Heavy Snow 33 0.6 32 0 96 96 N 8 13 30.23 1024 0 0 0.04 1.02
9:33 am 09:33 Mostly Cloudy with Heavy Snow 33 0.6 31 -0.6 92 92 ENE 10 17 30.21 1023 0 0 0.19 4.83
9:53 am 09:53 Mostly Cloudy with Heavy Snow 33 0.6 31 -0.6 92 92 NE 10 17 30.14 1021 0 0 0.24 6.10
10:19 am 10:19 Cloudy with Snow 33 0.6 31 -0.6 92 92 NE 7 11 30.19 1022 1 1 0.04 1.02
10:28 am 10:28 Cloudy with Light Snow 33 0.6 31 -0.6 92 92 NE 10 17 30.19 1022 1 1 0.04 1.02
10:37 am 10:37 Cloudy with Light Snow 33 0.6 31 -0.6 92 92 NE 9 15 30.19 1022 2 2 0.04 1.02
10:43 am 10:43 Cloudy with Light Snow 33 0.6 31 -0.6 92 92 NE 8 13 30.19 1022 3 4 0.04 1.02
10:53 am 10:53 Cloudy with Light Snow 33 0.6 31 -0.6 92 92 NE 10 17 30.12 1020 1 2 0.04 1.02
11:09 am 11:09 Cloudy with Light Snow 33 0.6 31 -0.6 92 92 ENE 9 15 30.18 1022 2 3 0.01 0.25
11:23 am 11:23 Cloudy with Light Snow 34 1.1 31 -0.6 89 89 ENE 9 15 30.17 1022 2 3 0.01 0.25
11:32 am 11:32 Cloudy with Light Snow 34 1.1 31 -0.6 89 89 ENE 8 13 30.17 1022 2 2 0.01 0.25
11:44 am 11:44 Cloudy with Light Snow 34 1.1 31 -0.6 89 89 ENE 9 15 30.15 1021 3 4 0.02 0.51
11:50 am 11:50 Cloudy with Light Snow 34 1 30 -1 87 87 ENE 13 20 30.15 1021 3 4 0.02 0.51
11:51 am 11:51 Cloudy with Light Snow 34 1.1 31 -0.6 89 89 ENE 12 19 30.10 1019 3 4 0.02 0.51
12:08 pm 12:08 Cloudy with Light Snow 34 1.1 31 -0.6 89 89 ENE 10 17 30.15 1021 8 13 0.00 0.03
12:30 pm 12:30 Cloudy 34 1.1 31 -0.6 89 89 E 12 19 30.14 1021 10 16 0.00 0.03
12:38 pm 12:38 Cloudy 34 1.1 31 -0.6 89 89 E 7 11 30.15 1021 10 16 0.00 0.03
12:46 pm 12:46 Cloudy 34 1.1 31 -0.6 89 89 E 9 15 30.14 1021 10 16 0.00 0.03
12:53 pm 12:53 Cloudy 35 1.7 31 -0.6 85 85 E 9 15 30.09 1019 10 16 0.00 0.03
1:07 pm 13:07 Cloudy 34 1.1 30 -1.1 85 85 E 10 17 30.13 1020 10 16 0.00 0.00
1:53 pm 13:53 Cloudy 34 1.1 30 -1.1 85 85 E 8 13 30.08 1019 10 16 0.00 0.00
2:53 pm 14:53 Cloudy 34 1.1 30 -1.1 85 85 ESE 9 15 30.07 1018 10 16 0.00 0.00
3:53 pm 15:53 Cloudy with Light Rain 34 1.1 31 -0.6 89 89 E 6 9 30.07 1018 3 5 0.01 0.25
4:29 pm 16:29 Cloudy with Light Snow 33 0.6 30 -1.1 89 89 NE 13 20 30.14 1021 2 3 0.02 0.51
4:39 pm 16:39 Cloudy with Light Snow 33 0.6 30 -1.1 89 89 ENE 9 15 30.13 1020 2 2 0.02 0.51
4:42 pm 16:42 Cloudy with Light Snow 33 0.6 31 -0.6 92 92 ENE 8 13 30.14 1021 1 2 0.02 0.51
4:53 pm 16:53 Cloudy with Light Snow 33 0.6 31 -0.6 92 92 ENE 9 15 30.09 1019 1 2 0.04 1.02
5:03 pm 17:03 Cloudy with Light Snow 33 0.6 30 -1.1 89 89 ENE 14 22 30.13 1020 1 1 0.01 0.25
5:15 pm 17:15 Mostly Cloudy with Snow 33 0.6 31 -0.6 92 92 ENE 12 19 30.14 1021 0 0 0.02 0.51
5:51 pm 17:51 Mostly Cloudy with Snow 32 0 30 -1 93 93 NE 15 24 30.15 1021 1 1 0.06 1.52
5:53 pm 17:53 Mostly Cloudy with Snow 32 0 30 -1.1 92 92 NE 12 19 30.11 1020 1 1 0.06 1.52
6:09 pm 18:09 Mostly Cloudy with Snow 32 0 30 -1.1 92 92 NE 12 19 30.15 1021 0 0 0.02 0.51
6:53 pm 18:53 Cloudy with Snow 32 0 30 -1.1 92 92 ENE 8 13 30.13 1020 0 0 0.08 2.03
7:23 pm 19:23 Cloudy with Snow 31 -0.6 29 -1.7 92 92 NE 9 15 30.20 1023 1 1 0.04 1.02
7:35 pm 19:35 Mostly Cloudy with Snow 31 -0.6 29 -1.7 92 92 NE 10 17 30.20 1023 0 0 0.05 1.27
7:53 pm 19:53 Mostly Cloudy with Heavy Snow 31 -0.6 29 -1.7 92 92 NE 8 13 30.15 1021 0 0 0.09 2.29
8:15 pm 20:15 Cloudy with Light Snow 31 -0.6 29 -1.7 92 92 NE 18 30 30.20 1023 1 1 0.02 0.51
8:19 pm 20:19 Cloudy with Light Snow 31 -0.6 28 -2.2 89 89 NE 16 26 30.20 1023 1 2 0.02 0.51
8:22 pm 20:22 Cloudy with Light Snow 31 -0.6 28 -2.2 89 89 NNE 17 28 30.20 1023 2 3 0.02 0.51
8:43 pm 20:43 Cloudy with Light Snow 31 -0.6 28 -2.2 89 89 NE 14 22 30.20 1023 2 3 0.03 0.76
8:53 pm 20:53 Cloudy with Light Snow 31 -0.6 28 -2.2 89 89 NE 14 22 30.16 1021 2 3 0.03 0.76
9:02 pm 21:02 Cloudy with Light Snow 31 -0.6 28 -2.2 89 89 NE 14 22 30.21 1023 2 3 0.00 0.03
9:09 pm 21:09 Cloudy with Light Snow 31 -0.6 28 -2.2 89 89 NE 12 19 30.22 1023 2 3 0.00 0.03
9:29 pm 21:29 Cloudy with Light Snow 31 -0.6 28 -2.2 89 89 NE 12 19 30.24 1024 2 3 0.00 0.03
9:53 pm 21:53 Cloudy with Light Snow 31 -0.6 28 -2.2 89 89 NNE 12 19 30.20 1023 2 2 0.01 0.25
9:55 pm 21:55 Cloudy with Light Snow 31 -0.6 28 -2.2 89 89 NNE 13 20 30.25 1024 1 2 0.00 0.03
10:02 pm 22:02 Cloudy with Light Snow 30 -1.1 28 -2.2 92 92 NNE 13 20 30.26 1025 1 1 0.00 0.03
10:10 pm 22:10 Cloudy with Light Snow 30 -1.1 28 -2.2 92 92 NNE 12 19 30.27 1025 1 1 0.01 0.25
10:21 pm 22:21 Cloudy with Light Snow 30 -1.1 28 -2.2 92 92 NNE 14 22 30.28 1025 1 2 0.01 0.25
10:29 pm 22:29 Cloudy with Light Snow 30 -1.1 28 -2.2 92 92 NNE 13 20 30.29 1026 1 2 0.02 0.51
10:38 pm 22:38 Cloudy with Light Snow 30 -1.1 28 -2.2 92 92 NNE 13 20 30.29 1026 2 3 0.02 0.51
10:40 pm 22:40 Cloudy with Light Snow 30 -1.1 28 -2.2 92 92 NNE 14 22 30.29 1026 2 3 0.02 0.51
10:51 pm 22:51 Cloudy with Light Snow 30 -1 28 -2 93 93 NNE 10 17 30.29 1026 3 4 0.02 0.51
10:53 pm 22:53 Cloudy with Light Snow 30 -1.1 28 -2.2 92 92 NNE 9 15 30.24 1024 3 5 0.02 0.51
11:06 pm 23:06 Cloudy with Light Snow 30 -1.1 27 -2.8 88 88 NNE 13 20 30.30 1026 3 5 0.00 0.03
11:53 pm 23:53 Cloudy 30 -1.1 27 -2.8 88 88 N 10 17 30.25 1024 7 11 0.00 0.03

Powered by AerisWeather